Вернуться в каталог

STARLINK-3837

АктивенСвязьVLEO
NORAD 52358·PAYLOAD·🇺🇸 United States

Запущен Apr 29, 2022 с Cape Canaveral Space Force Station

Loading…

Ближайшие Пролёты (ближайшие 24 часа)

TLE

СвежийSource: CelesTrak SupGP

Эпоха: Sep 14, 2026, 20:27 UTC

1 52358C 22045AD  26257.85256944  .00038698  00000+0  11433-2 0  2575
2 52358  53.1593  61.7740 0001194  75.9986 236.9720 15.34371924    14

Отслеживайте STARLINK-3837 в реальном времени с AllMySat

Download on the App Store